Findlay, OH

10:37 PM EST on December 14, 2017 (GMT -0500)
Findlay

Weather History for KFDY - April, 2014

Change the Weather History Date:

Sunday, April 27, 2014

  Actual Average Record
Temperature  
Mean Temperature 48 °F -  
Max Temperature 59 °F 63 °F 86 °F (1986)
Min Temperature 37 °F 42 °F 29 °F (1993)
Degree Days  
Heating Degree Days 17    
Moisture  
Dew Point 34 °F    
Average Humidity 65    
Maximum Humidity 82    
Minimum Humidity 42    
Precipitation  
Precipitation 0.00 in - - ()
Sea Level Pressure  
Sea Level Pressure 30.08 in    
Wind  
Wind Speed 13 mph (ENE)    
Max Wind Speed 21 mph    
Max Gust Speed 29 mph    
Visibility 10 miles    
Events      
Averages and records for this station are not official NWS values.
T = Trace of Precipitation, MM = Missing Value Source: NWS Daily Summary

Daily Weather History Graph

Daily Weather History Graph

Search for Another Location

Airport or City:

Trip Planner

Search our weather history database for the weather conditions in past years. The results will help you decide how hot, cold, wet, or windy it might be!

Date:

Astronomy

Apr. 27, 2014 Rise Set
Actual Time 6:38 AM EDT 8:27 PM EDT
Civil Twilight 6:08 AM EDT 8:56 PM EDT
Nautical Twilight 5:32 AM EDT 9:32 PM EDT
Astronomical Twilight 4:54 AM EDT 10:11 PM EDT
Moon 5:38 AM EDT (4/27) 6:59 PM EDT (4/27)
Length of Visible Light 14h 48m
Length of Day
13h 49m
Waning Crescent, 3% of the Moon is Illuminated
Apr 27
Waning Crescent
Apr 29
New
May 6
First Quarter
May 14
Full
May 21
Last Quarter

Hourly Weather History & Observations

Time (EDT) Temp. Windchill Dew Point Humidity Pressure Visibility Wind Dir Wind Speed Gust Speed Precip Events Conditions
12:53 AM 41.0 °F 33.5 °F 35.1 °F 79% 30.07 in 10.0 mi East 13.8 mph - N/A   Overcast
1:53 AM 39.0 °F 31.0 °F 33.1 °F 79% 30.07 in 10.0 mi East 13.8 mph - N/A   Clear
2:53 AM 39.0 °F 32.3 °F 33.1 °F 79% 30.07 in 10.0 mi ENE 10.4 mph 20.7 mph N/A   Clear
3:53 AM 37.9 °F 30.9 °F 32.0 °F 79% 30.09 in 10.0 mi East 10.4 mph - N/A   Clear
4:53 AM 37.0 °F 31.0 °F 32.0 °F 82% 30.10 in 10.0 mi East 8.1 mph - N/A   Clear
5:53 AM 37.0 °F 30.4 °F 32.0 °F 82% 30.09 in 10.0 mi ENE 9.2 mph - N/A   Clear
6:53 AM 37.0 °F 29.8 °F 32.0 °F 82% 30.10 in 10.0 mi ENE 10.4 mph - N/A   Clear
8:45 AM 41.0 °F 34.7 °F 34.0 °F 76% 30.13 in 9.0 mi ENE 10.4 mph - N/A   Mostly Cloudy
8:53 AM 41.0 °F 32.2 °F 34.0 °F 76% 30.12 in 9.0 mi ENE 18.4 mph - N/A   Mostly Cloudy
9:13 AM 41.0 °F 33.9 °F 33.1 °F 73% 30.14 in 9.0 mi ENE 12.7 mph - N/A   Overcast
9:36 AM 42.1 °F 36.1 °F 34.0 °F 73% 30.15 in 9.0 mi East 10.4 mph - N/A   Scattered Clouds
9:45 AM 43.0 °F 37.2 °F 34.0 °F 71% 30.15 in 9.0 mi East 10.4 mph - N/A   Mostly Cloudy
9:53 AM 43.0 °F 36.0 °F 34.0 °F 71% 30.14 in 10.0 mi East 13.8 mph - N/A   Mostly Cloudy
10:08 AM 44.1 °F 38.6 °F 34.0 °F 68% 30.14 in 10.0 mi East 10.4 mph - N/A   Scattered Clouds
10:53 AM 46.9 °F - 35.1 °F 63% 30.13 in 10.0 mi ENE 12.7 mph - N/A   Partly Cloudy
12:53 PM 53.1 °F - 35.1 °F 50% 30.08 in 10.0 mi East 17.3 mph 23.0 mph N/A   Clear
1:53 PM 55.0 °F - 35.1 °F 47% 30.06 in 10.0 mi East 15.0 mph 24.2 mph N/A   Clear
2:53 PM 59.0 °F - 36.0 °F 42% 30.05 in 10.0 mi ENE 17.3 mph - N/A   Clear
4:53 PM 55.9 °F - 36.0 °F 47% 30.02 in 10.0 mi ENE 15.0 mph - N/A   Partly Cloudy
5:53 PM 54.0 °F - 35.1 °F 49% 30.01 in 10.0 mi ENE 18.4 mph - N/A   Clear
6:53 PM 51.1 °F - 34.0 °F 52% 30.00 in 10.0 mi NE 20.7 mph 28.8 mph N/A   Clear
7:53 PM 48.9 °F - 32.0 °F 52% 30.02 in 10.0 mi NE 16.1 mph - N/A   Clear
8:53 PM 46.0 °F 39.6 °F 30.9 °F 56% 30.03 in 10.0 mi ENE 15.0 mph - N/A   Clear
9:53 PM 46.0 °F 39.3 °F 32.0 °F 58% 30.04 in 10.0 mi ENE 16.1 mph - N/A   Clear
10:53 PM 46.0 °F 38.8 °F 32.0 °F 58% 30.02 in 10.0 mi ENE 18.4 mph 24.2 mph N/A   Clear
11:53 PM 46.0 °F 38.8 °F 32.0 °F 58% 29.97 in 10.0 mi ENE 18.4 mph - N/A   Clear